Location: Bouchevilliers
(49.4029°N, 1.7169°E)
Time: 22:33:06
(UTC+00:00)

Daily predictions for brighter satellites

Satellite Brightness Start Highest point End
(mag) Time Altitude Azimuth Time Altitude Azimuth Time Altitude Azimuth
Cosmos 2227 Rocket 2.4 16:23:46 10° NNW 16:29:18 51° NE 16:34:47 10° SE
Meteor 1-28 Rocket 3.6 16:27:03 10° NNE 16:30:09 34° E 16:33:13 10° SSE
Cosmos 2369 Rocket 4.2 16:28:10 10° W 16:32:08 19° NW 16:36:08 10° N
CBERS-1 4.0 16:27:37 10° SSE 16:32:41 67° ENE 16:37:47 10° N
CENTAUR R/B 3.5 16:34:54 10° W 16:40:37 40° NNW 16:47:43 10° NE
Cosmos 1697 Rocket 3.1 16:36:04 10° S 16:41:23 46° ESE 16:46:44 10° NE
Cosmos 2360 4.3 16:37:12 10° SSW 16:42:56 89° WNW 16:48:43 10° NNE
Cosmos 1626 Rocket 4.1 16:38:47 10° NNW 16:43:04 62° W 16:47:17 10° S
CZ-2D R/B 3.8 16:41:58 10° ESE 16:44:33 24° ENE 16:47:10 10° NNE
Cosmos 2266 Rocket 3.9 16:42:46 10° N 16:48:54 68° ENE 16:54:55 10° SSE
Cosmos 1656 4.2 16:45:11 10° SW 16:50:46 62° WNW 16:56:27 10° NNE
Cosmos 2228 4.3 16:47:46 10° SW 16:51:46 40° WNW 16:55:48 10° N
Cosmos 1606 Rocket 4.0 16:48:32 10° SSE 16:52:41 41° E 16:56:52 10° NNE
Cosmos 1503 Rocket 4.0 16:49:41 10° SSW 16:54:54 79° ESE 17:00:07 10° NNE
Lacrosse 5 rocket 2.5 16:53:08 10° WNW 16:56:18 25° N 16:58:51 13° NE
UNK 3.9 16:54:36 10° NNE 16:59:05 51° E 17:03:31 10° S
CZ-4C R/B 3.4 16:52:13 10° NW 16:59:10 71° SW 17:07:46 10° SSE
Cosmos 1484 Rocket 3.2 16:56:20 10° S 16:59:47 57° W 17:03:14 10° NNW
Thor Agena Rocket 3.5 16:55:48 10° SSE 17:00:59 84° ENE 17:06:10 10° NNW
Cosmos 1743 3.3 16:58:12 10° NNW 17:01:21 48° W 17:04:29 10° S
Cosmos 1544 Rocket 4.3 16:57:46 10° SSW 17:02:06 55° WNW 17:06:29 10° N
IRS-P3 4.4 16:58:44 10° SE 17:03:45 44° ENE 17:08:46 10° N
NOSS 2-3 (D) 3.8 17:01:02 10° SSW 17:04:28 39° SE 17:07:02 17° ENE
NOSS 2-3 (E) 3.6 17:01:38 10° SSW 17:05:07 42° SE 17:07:43 17° ENE
Cosmos 1354 Rocket 4.0 17:00:42 10° SSW 17:05:55 70° ESE 17:11:10 10° NNE
IGS 5A 3.9 17:03:19 10° S 17:07:15 63° W 17:11:13 10° NNW
NOSS 2-2 (D) 4.5 17:05:05 10° W 17:07:44 24° NW 17:10:10 11° NNE
Cosmos 1777 Rocket 4.2 17:02:55 10° SSW 17:08:10 72° WNW 17:13:25 10° NNE
Cosmos 2151 3.5 17:05:21 10° NNW 17:09:28 62° W 17:13:34 10° S
Cosmos-2242 4.2 17:06:27 10° SE 17:09:39 21° E 17:11:23 17° NE
USA 238 DEB 4.0 17:04:12 10° S 17:09:50 41° ESE 17:14:48 15° NE
USA 238 4.0 17:04:19 10° S 17:09:58 41° ESE 17:14:54 15° NE
MOS 1 Rocket 3.6 17:05:47 10° SE 17:10:38 52° ENE 17:15:44 10° N
Cosmos 1898 Rocket 4.5 17:09:37 10° SSE 17:13:50 26° E 17:16:31 17° ENE
Gbstr 26 Del rocket 2.8 17:09:54 10° WSW 17:14:01 67° SSE 17:16:29 20° ENE
Cosmos 1726 Rocket 3.8 17:10:41 10° S 17:15:11 53° E 17:19:38 10° NNE
ERS-1 4.4 17:11:48 10° SSE 17:16:43 63° ENE 17:21:37 10° N
USA 215 3.8 17:12:07 15° ENE 17:17:19 47° N 17:23:31 10° WNW
IRIDIUM 104 4.5 17:12:11 10° N 17:17:26 79° W 17:22:38 10° S
Cosmos 2082 4.1 17:12:22 10° NNW 17:17:47 42° NE 17:23:11 10° ESE
AQUARIUS 4.1 17:13:53 10° SSE 17:18:12 59° ENE 17:22:33 10° N
SMAP 3.2 17:14:52 10° SSE 17:19:31 81° WSW 17:24:13 10° NNW
Cosmos 1805 3.9 17:17:37 10° NNE 17:20:28 25° ENE 17:23:18 10° SE
Cosmos 2297 Rocket 4.0 17:16:23 10° NW 17:21:27 34° WSW 17:26:30 10° S
GEOS 3 Rocket 3.8 17:19:09 16° NE 17:23:29 63° SE 17:28:48 10° SSW
Landsat 7 3.7 17:18:59 10° SSE 17:23:38 87° ENE 17:28:20 10° NNW
YAOGAN 1 3.3 17:22:48 10° SE 17:26:30 29° ENE 17:30:12 10° N
Cosmos 1937 Rocket 4.4 17:25:08 10° SSE 17:29:23 26° E 17:30:51 23° ENE
Okean 1-7 Rocket 4.3 17:26:06 10° NNW 17:30:24 55° W 17:34:38 10° S
SL-16 R/B 4.1 17:28:57 10° ESE 17:29:26 11° ESE 17:29:26 11° ESE
Cosmos 990 Rocket 4.0 17:28:11 10° SSW 17:33:19 84° WNW 17:38:14 12° NNE
Cosmos 1461 3.9 17:30:03 10° WSW 17:33:41 36° NW 17:36:23 16° NNE
CZ-2D R/B 3.8 17:30:38 10° SE 17:34:32 39° ENE 17:38:23 10° N
SL-16 R/B 3.3 17:29:06 10° N 17:35:07 52° WNW 17:41:05 10° SW
SKYMED 2 4.1 17:35:14 24° NE 17:37:19 38° E 17:41:23 10° SSE
COSMOS 2455 4.0 17:33:31 10° SSE 17:37:56 22° ESE 17:38:36 21° E
Okean 1 4.0 17:35:40 10° SSE 17:38:21 29° ESE 17:38:21 29° ESE
Cosmos 1844 Rocket 3.5 17:39:47 10° NNW 17:44:45 30° NE 17:45:49 28° ENE
SJ-6F 4.3 17:40:54 10° SSE 17:44:53 88° W 17:48:57 10° NNW
Cosmos 2219 3.1 17:39:19 10° NNW 17:45:04 73° ENE 17:50:49 10° SE
Cosmos 1980 Rocket 2.2 17:40:05 10° SSW 17:45:41 66° ESE 17:49:21 22° NE
Cosmos 1953 Rocket 3.6 17:42:55 10° N 17:47:23 84° W 17:51:51 10° S
Aureole 1 Rocket 3.4 17:43:04 10° S 17:47:39 66° ESE 17:51:47 19° NNE
Meteor 1-26 Rocket 4.2 17:43:47 10° SSE 17:48:57 50° E 17:52:48 18° NNE
PSLV R/B 3.7 17:50:00 38° E 17:50:37 41° ENE 17:54:28 10° N
ARIANE 5 R/B 3.2 17:47:41 10° S 17:52:40 56° W 17:57:45 10° NNW
Cosmos 2263 Rocket 2.5 17:47:34 10° NNW 17:53:14 72° WSW 17:58:53 10° SSE
SL-19 R/B 4.3 17:48:18 10° SE 17:53:35 53° ENE 17:59:10 10° N
BREEZE-M DEB (TANK) 3.6 17:53:58 10° SW 17:57:12 26° SSE 17:57:13 26° SSE
Cosmos 1680 Rocket 3.7 17:53:36 10° NNW 17:58:38 45° ENE 18:00:24 33° ESE
COSMO-SKYMED 1 2.9 17:59:08 39° ESE 17:59:08 39° ESE 18:02:33 10° S
BREEZE-M DEB (TANK) 3.9 17:55:45 10° W 17:59:18 79° SSW 18:06:53 19° ESE
NOSS 3-2 (C) 4.0 17:54:21 10° WSW 17:59:25 45° NW 18:03:20 21° NNE
NOAA 15 4.5 17:55:39 10° SSE 18:00:54 70° ENE 18:06:10 10° N
Cosmos 1076 Rocket 4.3 17:57:47 10° NNW 18:01:59 54° W 18:06:12 10° S
Meteor 2-10 4.1 17:56:50 10° NNW 18:02:16 85° WSW 18:07:51 10° S
NOAA 6 4.1 17:57:59 10° SE 18:02:53 49° ENE 18:07:48 10° N
Cosmos 2369 3.8 17:57:50 10° S 18:03:22 53° ESE 18:05:20 37° ENE
USA 81 4.1 18:06:08 10° N 18:11:25 78° W 18:16:40 10° S
Cosmos 44 Rocket 3.8 18:06:52 10° NNW 18:11:47 43° NE 18:11:53 43° NE
Cosmos 2227 Rocket 4.1 18:08:12 10° NW 18:13:06 31° WSW 18:17:58 10° SSW
SPOT 1/Viking Rocket 3.8 18:11:32 10° S 18:16:43 70° WSW 18:21:56 10° NNW
Cosmos 2058 Rocket 3.4 18:19:31 10° SSW 18:23:58 67° WNW 18:26:26 26° N
Cosmos 1697 Rocket 3.9 18:20:18 10° WSW 18:25:28 36° NW 18:29:16 17° N
OceanSat 1 rocket 4.4 18:21:36 10° SSE 18:26:19 83° ENE 18:31:03 10° NNW
Cosmos 2333 Rocket 4.1 18:28:26 10° SSE 18:29:34 15° SSE 18:29:34 15° SSE
CENTAUR R/B 4.1 18:27:27 10° WNW 18:33:17 28° N 18:35:36 24° NNE
Lacrosse 5 rocket 3.0 18:30:47 10° NW 18:32:26 21° NNW 18:32:26 21° NNW
Meteor 2-11 Rocket 4.3 18:28:09 10° N 18:34:22 85° E 18:40:31 10° S
NOSS 2-3 (C) 4.3 18:31:53 10° WSW 18:34:52 38° NW 18:34:52 38° NW
Meteor 1-14 Rocket 4.1 18:32:47 10° N 18:38:34 71° ENE 18:39:10 65° ESE
Resurs 1-3 4.3 18:39:27 10° S 18:43:37 51° W 18:47:51 10° NNW
Cosmos-2242 4.1 18:42:23 10° SW 18:46:25 41° WNW 18:47:46 32° NNW
Cosmos 1898 Rocket 4.2 18:50:32 10° SW 18:55:32 50° WNW 18:56:45 41° NNW
Cosmos 1844 4.0 18:50:17 10° NNW 18:54:37 53° N 18:54:37 53° N
USA 215 3.5 18:59:28 53° NNE 18:59:43 53° NNE 19:06:04 10° WNW
Cosmos 2112 Rocket 4.2 18:55:10 10° NNW 18:59:48 66° WNW 18:59:48 66° WNW
USA 238 DEB 4.0 18:54:28 10° WSW 19:00:34 55° NW 19:02:15 44° N
USA 238 4.0 18:54:34 10° WSW 19:00:41 55° NW 19:02:21 44° N
Cosmos 1553 Rocket 4.4 18:54:45 10° SSW 19:00:51 60° WNW 19:07:06 10° N
YAOGAN 1 4.2 18:58:27 10° SSW 19:02:17 32° W 19:06:09 10° NNW
BREEZE-M DEB (TANK) 3.9 19:01:21 10° SW 19:06:16 43° SSW 19:06:16 43° SSW
Cosmos 1937 Rocket 4.2 19:05:57 10° SW 19:10:58 50° WNW 19:10:58 50° WNW
Meteor 2-6 Rocket 4.5 19:05:36 10° SSW 19:11:16 68° WNW 19:11:37 66° NW
Cosmos 2237 4.5 19:07:57 10° SW 19:12:58 65° WSW 19:12:58 65° WSW
SL-16 R/B 3.5 19:08:36 10° SSW 19:11:20 30° SSW 19:11:20 30° SSW
Cosmos 1745 Rocket 4.2 19:10:15 10° NNW 19:16:23 68° W 19:22:26 10° S
COSMOS 2455 3.3 19:17:08 10° SW 19:21:46 55° SW 19:21:46 55° SW
Cosmos 1844 Rocket 3.6 19:23:25 10° NW 19:27:31 45° WNW 19:27:31 45° WNW
Cosmos 1980 Rocket 3.8 19:25:19 10° WSW 19:30:08 28° NW 19:31:07 26° NNW
CENTAUR R/B 4.4 20:19:01 10° NW 20:22:41 28° NNW 20:22:41 28° NNW
